Find Starlink 33707

NORAD ID: 63401 Int'l Des: 2025-065 Owner: SPXS Country: US Constellation: starlink operational
LEOCIRCULAR

現在のビュー

3D地球を読み込み中...

About Starlink 33707

Starlink 33707 (NORAD 63401) is a starlink constellation satellite (v2 mini) launched Mar 31, 2025 by SPXS of US. It operates in LEO, CIRCULAR orbit with a mass of 575.00 kg.

次回通過

Passes for default location (London). Set your location on the main map for personalized predictions.

高度履歴

Loading altitude history...

軌道要素

1 63401U 25065C 26228.18144596 .00003062 00000-0 12073-3 0 9997
2 63401 42.9980 286.2320 0000790 266.4109 93.6652 15.27584989 77233
Epoch: Aug 16, 2026 • Age: 7 hours

現在のステータス

高度 485.5 km
遠地点 / 近地点 N/A
速度 7.63 km/s
衛星直下点 37.61°N, 148.52°W
打ち上げ日 Mar 31, 2025
運用期間 1.3 years
タイプ internet

技術仕様

分類 Payload
質量 575.00 kg
乾燥質量 530.00 kg
総質量 575.00 kg
長さ 0.30 m
直径 4.10 m
スパン 29.00 m
形状 Box + pan
製造者 SPXS
バスタイプ Starlink V2MO
フェーズステータス In Orbit
所有者/国 SPXS/US

Most Searched